�������l�o���
Date,Time,MP-1(��Sv/h),MP-2(��Sv/h),MP-3(��Sv/h),MP-4(��Sv/h),MP-5(��Sv/h),MP-6(��Sv/h),MP-7(��Sv/h),MP-8(��Sv/h),����,����(m/s),���J
2022/06/16,00:00,0.564,0.830,0.523,0.998,0.699,0.342,0.586,0.554,��,5.8,��
2022/06/16,00:10,0.564,0.828,0.524,0.997,0.699,0.342,0.586,0.554,��쓌,6.6,��
2022/06/16,00:20,0.564,0.830,0.522,0.998,0.702,0.341,0.586,0.555,��,5.6,��
2022/06/16,00:30,0.564,0.831,0.523,0.998,0.699,0.341,0.587,0.553,��,5.4,��
2022/06/16,00:40,0.563,0.831,0.522,1.000,0.701,0.343,0.587,0.554,��,5.3,��
2022/06/16,00:50,0.565,0.829,0.525,0.999,0.701,0.341,0.585,0.555,��,4.7,��
2022/06/16,01:00,0.564,0.832,0.525,0.998,0.700,0.342,0.586,0.553,��,4.1,��
2022/06/16,01:10,0.566,0.831,0.524,0.999,0.700,0.343,0.586,0.554,��쐼,3.7,��
2022/06/16,01:20,0.564,0.830,0.524,0.998,0.700,0.341,0.586,0.555,�쐼,2.6,��
2022/06/16,01:30,0.563,0.831,0.525,0.999,0.701,0.342,0.586,0.554,�쐼,2.3,��
2022/06/16,01:40,0.564,0.831,0.524,0.998,0.699,0.342,0.586,0.555,��쐼,2.5,��
2022/06/16,01:50,0.564,0.828,0.526,0.998,0.700,0.342,0.584,0.554,��쐼,2.2,��
2022/06/16,02:00,0.565,0.830,0.524,0.997,0.702,0.342,0.583,0.555,��쐼,2.0,��
2022/06/16,02:10,0.565,0.829,0.524,0.999,0.701,0.343,0.584,0.554,��쐼,1.5,��
2022/06/16,02:20,0.565,0.830,0.526,0.999,0.702,0.343,0.585,0.555,�쓌,0.6,��
2022/06/16,02:30,0.567,0.832,0.526,0.999,0.702,0.343,0.583,0.556,�k��,1.5,��
2022/06/16,02:40,0.566,0.831,0.526,1.002,0.703,0.343,0.587,0.555,�k��,1.7,��
2022/06/16,02:50,0.566,0.831,0.526,1.000,0.702,0.342,0.586,0.555,�k�k��,2.6,��
2022/06/16,03:00,0.566,0.827,0.527,1.000,0.702,0.342,0.586,0.556,�k�k��,2.5,��
2022/06/16,03:10,0.566,0.830,0.527,0.999,0.700,0.345,0.585,0.555,�k��,1.7,��
2022/06/16,03:20,0.566,0.830,0.526,0.999,0.701,0.343,0.585,0.556,�k��,0.9,��
2022/06/16,03:30,0.566,0.831,0.527,0.999,0.700,0.343,0.585,0.555,-,CALM,��
2022/06/16,03:40,0.565,0.830,0.525,1.001,0.702,0.345,0.585,0.555,�k��,0.9,��
2022/06/16,03:50,0.566,0.831,0.526,1.001,0.702,0.342,0.585,0.556,�k��,0.6,��
2022/06/16,04:00,0.567,0.829,0.526,0.998,0.703,0.343,0.585,0.556,-,CALM,��
2022/06/16,04:10,0.565,0.828,0.525,1.002,0.700,0.344,0.586,0.557,���k��,0.6,�L
2022/06/16,04:20,0.565,0.830,0.526,0.998,0.701,0.343,0.585,0.556,-,CALM,��
2022/06/16,04:30,0.566,0.830,0.526,1.000,0.701,0.342,0.585,0.556,���k��,0.9,��
2022/06/16,04:40,0.568,0.829,0.526,1.000,0.702,0.343,0.584,0.557,���k��,1.2,��
2022/06/16,04:50,0.566,0.830,0.525,0.999,0.701,0.342,0.584,0.556,�k�k��,0.8,�L
2022/06/16,05:00,0.566,0.830,0.524,0.999,0.698,0.343,0.585,0.557,�k�k��,0.6,��
2022/06/16,05:10,0.566,0.831,0.526,0.999,0.701,0.343,0.585,0.555,-,CALM,�L
2022/06/16,05:20,0.567,0.828,0.527,1.000,0.702,0.343,0.585,0.557,�쐼,1.1,�L
2022/06/16,05:30,0.566,0.830,0.527,0.999,0.702,0.341,0.584,0.556,��쐼,2.0,�L
2022/06/16,05:40,0.566,0.830,0.525,1.001,0.701,0.343,0.585,0.556,��쐼,2.0,��
2022/06/16,05:50,0.567,0.828,0.528,0.999,0.702,0.342,0.583,0.555,��쐼,1.9,��
2022/06/16,06:00,0.568,0.830,0.526,0.998,0.703,0.343,0.586,0.556,��쐼,1.9,��
2022/06/16,06:10,0.567,0.832,0.527,1.000,0.703,0.344,0.584,0.555,�쐼,2.5,��
2022/06/16,06:20,0.566,0.830,0.529,0.998,0.701,0.341,0.586,0.555,��쐼,2.2,��
2022/06/16,06:30,0.566,0.832,0.527,1.000,0.705,0.343,0.584,0.555,��쐼,2.0,��
2022/06/16,06:40,0.568,0.831,0.528,1.001,0.703,0.343,0.584,0.556,��,1.5,��
2022/06/16,06:50,0.567,0.830,0.528,1.001,0.703,0.342,0.585,0.555,��쐼,2.2,��
2022/06/16,07:00,0.566,0.832,0.525,1.000,0.702,0.341,0.585,0.553,��쐼,1.9,��
2022/06/16,07:10,0.566,0.831,0.524,0.999,0.700,0.341,0.584,0.552,��,2.2,��
2022/06/16,07:20,0.567,0.828,0.526,1.000,0.701,0.342,0.583,0.555,��,2.3,��
2022/06/16,07:30,0.566,0.828,0.525,0.998,0.701,0.341,0.584,0.552,��쓌,1.7,��
2022/06/16,07:40,0.565,0.831,0.525,0.998,0.702,0.342,0.584,0.552,��,1.1,��
2022/06/16,07:50,0.565,0.827,0.525,0.999,0.702,0.342,0.585,0.553,��,2.3,��
2022/06/16,08:00,0.565,0.827,0.525,1.001,0.698,0.340,0.586,0.552,��,2.6,��
2022/06/16,08:10,0.565,0.827,0.525,1.002,0.702,0.341,0.585,0.552,��쓌,1.2,��
2022/06/16,08:20,0.565,0.827,0.525,0.999,0.700,0.342,0.584,0.553,��쓌,3.5,��
2022/06/16,08:30,0.566,0.825,0.524,1.001,0.699,0.341,0.583,0.553,��,3.7,��
2022/06/16,08:40,0.566,0.827,0.524,1.000,0.698,0.340,0.584,0.553,��쓌,4.5,��
2022/06/16,08:50,0.566,0.826,0.522,1.001,0.699,0.342,0.586,0.554,��쓌,5.5,��
2022/06/16,09:00,0.566,0.829,0.524,1.003,0.702,0.343,0.585,0.553,��쓌,5.7,��
2022/06/16,09:10,0.565,0.827,0.524,0.999,0.703,0.342,0.583,0.553,��,5.3,��
2022/06/16,09:20,0.566,0.828,0.525,0.999,0.702,0.341,0.584,0.553,��쓌,5.0,��
2022/06/16,09:30,0.567,0.827,0.524,1.001,0.701,0.343,0.583,0.553,��쓌,4.2,��
2022/06/16,09:40,0.566,0.828,0.526,0.999,0.703,0.343,0.583,0.554,��,4.3,��
2022/06/16,09:50,0.566,0.831,0.525,1.002,0.700,0.341,0.583,0.555,��,4.3,��
2022/06/16,10:00,0.565,0.828,0.525,1.001,0.703,0.344,0.586,0.553,��,5.6,��
2022/06/16,10:10,0.569,0.829,0.526,1.002,0.702,0.342,0.586,0.553,��쓌,7.5,��
2022/06/16,10:20,0.568,0.826,0.526,1.000,0.702,0.342,0.585,0.554,��,7.2,��
2022/06/16,10:30,0.568,0.829,0.527,1.000,0.701,0.342,0.586,0.554,��,7.3,��
2022/06/16,10:40,0.567,0.829,0.527,1.002,0.701,0.343,0.586,0.555,��,6.7,��
2022/06/16,10:50,0.568,0.831,0.525,1.001,0.704,0.343,0.586,0.555,��,7.3,��
2022/06/16,11:00,0.567,0.829,0.525,1.001,0.703,0.343,0.586,0.553,��,8.1,��
2022/06/16,11:10,0.569,0.830,0.526,0.998,0.702,0.342,0.586,0.554,��쓌,8.3,��
2022/06/16,11:20,0.568,0.828,0.526,1.001,0.704,0.342,0.587,0.554,��쓌,9.9,��
2022/06/16,11:30,0.568,0.832,0.527,0.996,0.705,0.343,0.587,0.553,��쓌,9.5,��
2022/06/16,11:40,0.567,0.830,0.527,1.000,0.702,0.343,0.588,0.555,��쓌,9.7,��
2022/06/16,11:50,0.568,0.830,0.527,0.998,0.703,0.344,0.586,0.553,��쓌,9.4,��
2022/06/16,12:00,0.567,0.833,0.527,1.001,0.704,0.343,0.587,0.554,��쓌,8.3,��
2022/06/16,12:10,0.568,0.833,0.527,1.001,0.704,0.342,0.587,0.555,��쓌,8.6,��
2022/06/16,12:20,0.570,0.834,0.526,1.000,0.705,0.343,0.586,0.556,��쓌,9.6,��
2022/06/16,12:30,0.569,0.832,0.528,1.001,0.704,0.344,0.587,0.554,��,9.0,��
2022/06/16,12:40,0.568,0.833,0.527,1.002,0.705,0.345,0.586,0.556,��쓌,10.2,��
2022/06/16,12:50,0.569,0.835,0.528,1.001,0.706,0.343,0.588,0.555,��쓌,9.5,��
2022/06/16,13:00,0.568,0.831,0.529,1.002,0.705,0.343,0.588,0.556,��,9.5,��
2022/06/16,13:10,0.570,0.833,0.526,1.001,0.706,0.343,0.588,0.555,��쓌,10.7,��
2022/06/16,13:20,0.568,0.833,0.528,1.002,0.707,0.343,0.589,0.556,-,CALM,��
2022/06/16,13:30,0.571,0.833,0.526,1.001,0.706,0.343,0.587,0.555,-,CALM,��
2022/06/16,13:40,0.570,0.832,0.527,1.001,0.706,0.345,0.588,0.554,-,CALM,��
2022/06/16,13:50,0.569,0.832,0.527,1.001,0.706,0.344,0.588,0.555,��쓌,11.6,��
2022/06/16,14:00,0.568,0.834,0.528,1.002,0.708,0.343,0.588,0.555,��쓌,10.5,��
2022/06/16,14:10,0.566,0.832,0.527,1.002,0.707,0.344,0.588,0.555,��쓌,9.3,��
2022/06/16,14:20,0.567,0.833,0.528,1.003,0.708,0.344,0.589,0.556,��쓌,8.8,��
2022/06/16,14:30,0.569,0.832,0.528,1.004,0.705,0.346,0.590,0.555,��쓌,6.5,��
2022/06/16,14:40,0.569,0.835,0.527,1.001,0.708,0.343,0.588,0.556,��,7.0,��
2022/06/16,14:50,0.567,0.832,0.527,1.002,0.709,0.344,0.587,0.556,��,8.9,��
2022/06/16,15:00,0.571,0.834,0.528,1.003,0.706,0.343,0.587,0.556,��,7.7,��
2022/06/16,15:10,0.572,0.833,0.528,1.004,0.709,0.344,0.588,0.554,��,7.4,��
2022/06/16,15:20,0.573,0.835,0.530,1.004,0.708,0.344,0.589,0.556,��쓌,8.4,��
2022/06/16,15:30,0.571,0.835,0.527,1.003,0.704,0.344,0.589,0.554,��,6.4,��
2022/06/16,15:40,0.572,0.836,0.529,1.005,0.708,0.343,0.588,0.557,��,6.1,��
2022/06/16,15:50,0.571,0.836,0.529,1.004,0.709,0.343,0.588,0.556,��,6.6,��
2022/06/16,16:00,0.569,0.836,0.527,1.003,0.708,0.343,0.588,0.554,��,7.2,��
2022/06/16,16:10,0.567,0.836,0.529,1.002,0.707,0.344,0.589,0.555,��,5.8,��
2022/06/16,16:20,0.570,0.837,0.528,1.003,0.705,0.345,0.589,0.556,��,7.6,��
2022/06/16,16:30,0.568,0.837,0.529,1.005,0.709,0.344,0.588,0.556,��쓌,8.2,��
2022/06/16,16:40,0.567,0.836,0.530,1.004,0.709,0.345,0.587,0.554,��쓌,7.3,��
2022/06/16,16:50,0.569,0.835,0.531,1.005,0.708,0.344,0.589,0.557,��,6.8,��
2022/06/16,17:00,0.568,0.838,0.528,1.008,0.710,0.344,0.587,0.555,��,8.0,��
2022/06/16,17:10,0.570,0.840,0.530,1.007,0.708,0.345,0.588,0.556,��쓌,8.3,��
2022/06/16,17:20,0.570,0.839,0.529,1.008,0.710,0.343,0.588,0.556,��쓌,9.7,��
2022/06/16,17:30,0.570,0.838,0.529,1.010,0.709,0.344,0.588,0.555,��쓌,9.6,��
2022/06/16,17:40,0.571,0.837,0.531,1.009,0.710,0.345,0.588,0.555,��,7.8,��
2022/06/16,17:50,0.569,0.840,0.530,1.006,0.709,0.344,0.586,0.557,��,6.9,��
2022/06/16,18:00,0.571,0.839,0.529,1.008,0.709,0.345,0.585,0.558,��,6.6,��
2022/06/16,18:10,0.569,0.841,0.529,1.006,0.710,0.344,0.587,0.557,��,6.8,��
2022/06/16,18:20,0.571,0.840,0.530,1.007,0.710,0.343,0.587,0.556,��,6.5,��
2022/06/16,18:30,0.571,0.838,0.530,1.007,0.709,0.345,0.587,0.556,��,6.0,�L
2022/06/16,18:40,0.571,0.838,0.530,1.008,0.709,0.345,0.588,0.557,��쐼,6.3,�L
2022/06/16,18:50,0.570,0.840,0.528,1.007,0.711,0.345,0.589,0.557,��쐼,6.8,��
2022/06/16,19:00,0.571,0.839,0.532,1.009,0.709,0.344,0.588,0.557,��쐼,6.3,��
2022/06/16,19:10,0.572,0.838,0.530,1.009,0.709,0.345,0.588,0.558,��쐼,6.3,��
2022/06/16,19:20,0.571,0.840,0.531,1.008,0.709,0.345,0.589,0.558,��쐼,5.8,��
2022/06/16,19:30,0.571,0.839,0.530,1.009,0.711,0.345,0.591,0.556,��쐼,4.6,��
2022/06/16,19:40,0.570,0.837,0.532,1.009,0.711,0.345,0.588,0.559,��쐼,4.7,��
2022/06/16,19:50,0.571,0.840,0.531,1.009,0.710,0.346,0.589,0.558,��쐼,4.7,��
2022/06/16,20:00,0.572,0.839,0.533,1.010,0.711,0.345,0.590,0.557,�쐼,5.0,��
2022/06/16,20:10,0.571,0.839,0.530,1.011,0.710,0.346,0.591,0.557,��쐼,4.9,��
2022/06/16,20:20,0.570,0.839,0.531,1.009,0.712,0.345,0.589,0.557,��쐼,4.7,��
2022/06/16,20:30,0.573,0.840,0.531,1.009,0.711,0.344,0.589,0.559,��쐼,4.6,��
2022/06/16,20:40,0.572,0.840,0.531,1.007,0.712,0.347,0.591,0.558,��쐼,4.5,��
2022/06/16,20:50,0.572,0.841,0.530,1.009,0.710,0.346,0.589,0.559,��쐼,3.9,��
2022/06/16,21:00,0.572,0.840,0.532,1.009,0.711,0.344,0.590,0.557,��쐼,3.4,��
2022/06/16,21:10,0.573,0.839,0.532,1.009,0.711,0.344,0.589,0.557,�쐼,2.8,��
2022/06/16,21:20,0.573,0.840,0.531,1.007,0.710,0.346,0.588,0.559,���쐼,2.2,��
2022/06/16,21:30,0.573,0.838,0.532,1.008,0.709,0.345,0.589,0.559,���쐼,2.6,��
2022/06/16,21:40,0.573,0.840,0.531,1.008,0.711,0.344,0.590,0.559,�쐼,2.2,��
2022/06/16,21:50,0.573,0.840,0.531,1.009,0.713,0.345,0.589,0.559,�쐼,1.7,��
2022/06/16,22:00,0.573,0.841,0.532,1.009,0.713,0.345,0.590,0.557,���쐼,2.8,��
2022/06/16,22:10,0.572,0.840,0.531,1.007,0.710,0.345,0.589,0.557,��,3.1,��
2022/06/16,22:20,0.573,0.839,0.530,1.005,0.710,0.345,0.589,0.558,��,3.6,��
2022/06/16,22:30,0.572,0.839,0.530,1.008,0.712,0.345,0.588,0.560,���쐼,3.5,��
2022/06/16,22:40,0.573,0.839,0.531,1.007,0.712,0.346,0.589,0.557,���쐼,2.9,��
2022/06/16,22:50,0.573,0.841,0.532,1.007,0.711,0.345,0.589,0.558,���쐼,3.1,��
2022/06/16,23:00,0.574,0.838,0.531,1.009,0.713,0.345,0.588,0.556,���쐼,2.6,��
2022/06/16,23:10,0.573,0.838,0.531,1.009,0.710,0.344,0.590,0.560,�쐼,1.2,��
2022/06/16,23:20,0.574,0.841,0.530,1.008,0.712,0.346,0.589,0.558,��쐼,1.2,��
2022/06/16,23:30,0.572,0.840,0.532,1.008,0.712,0.346,0.588,0.557,��,1.1,��
2022/06/16,23:40,0.573,0.839,0.532,1.008,0.710,0.345,0.589,0.557,��쐼,0.8,��
2022/06/16,23:50,0.574,0.838,0.531,1.009,0.712,0.346,0.589,0.557,���k��,1.2,��
